Letzte Messung
Zeitpunkt Temperatur Luftfeuchte Luftdruck
2021-09-19 15:54:57 15.97 ℃ 100 % 1020.84 hPa

Zeitpunkt Temperatur Luftfeuchte Luftdruck
2021-09-19 15:54:57 15.97 ℃ 100 % 1020.84 hPa
2021-09-19 15:44:57 15.99 ℃ 100 % 1020.86 hPa
2021-09-19 15:34:57 16.08 ℃ 100 % 1020.88 hPa
2021-09-19 15:24:57 16.3 ℃ 100 % 1020.9 hPa
2021-09-19 15:14:57 16.18 ℃ 100 % 1020.94 hPa
2021-09-19 15:04:57 15.96 ℃ 100 % 1021.05 hPa
2021-09-19 14:54:57 16.04 ℃ 100 % 1021.13 hPa
2021-09-19 14:44:57 16.02 ℃ 100 % 1021.18 hPa
2021-09-19 14:34:57 16.05 ℃ 100 % 1021.23 hPa
2021-09-19 14:24:57 16.06 ℃ 100 % 1021.27 hPa
2021-09-19 14:14:57 16.19 ℃ 100 % 1021.28 hPa
2021-09-19 14:04:57 15.92 ℃ 100 % 1021.33 hPa
2021-09-19 13:54:57 15.97 ℃ 100 % 1021.37 hPa
2021-09-19 13:44:57 15.75 ℃ 100 % 1021.46 hPa
2021-09-19 13:34:57 15.66 ℃ 100 % 1021.48 hPa
2021-09-19 13:24:57 15.62 ℃ 100 % 1021.52 hPa
2021-09-19 13:14:57 15.92 ℃ 100 % 1021.54 hPa
2021-09-19 13:04:57 15.79 ℃ 100 % 1021.57 hPa
2021-09-19 12:54:57 15.95 ℃ 100 % 1021.58 hPa
2021-09-19 12:44:58 16.08 ℃ 100 % 1021.61 hPa
2021-09-19 12:34:58 16.07 ℃ 100 % 1021.57 hPa
2021-09-19 12:24:58 16.49 ℃ 100 % 1021.48 hPa
2021-09-19 12:14:58 16.68 ℃ 100 % 1021.45 hPa
2021-09-19 12:04:58 16.68 ℃ 100 % 1021.51 hPa
2021-09-19 11:54:59 16.44 ℃ 100 % 1021.57 hPa
2021-09-19 11:44:58 16.36 ℃ 100 % 1021.58 hPa
2021-09-19 11:34:58 16.15 ℃ 100 % 1021.52 hPa
2021-09-19 11:24:58 15.92 ℃ 100 % 1021.54 hPa
2021-09-19 11:14:58 15.81 ℃ 100 % 1021.57 hPa
2021-09-19 11:04:58 15.46 ℃ 100 % 1021.54 hPa
2021-09-19 10:54:58 15.22 ℃ 100 % 1021.5 hPa
2021-09-19 10:44:58 15.2 ℃ 100 % 1021.46 hPa
2021-09-19 10:34:58 15.27 ℃ 100 % 1021.39 hPa
2021-09-19 10:24:58 15.37 ℃ 100 % 1021.35 hPa
2021-09-19 10:14:58 15.38 ℃ 100 % 1021.33 hPa
2021-09-19 10:04:58 15.26 ℃ 100 % 1021.34 hPa
Durchschnitt 15.92 ℃ 100 % 1021.35 hPa

weatherino

Wetterdaten aus der Harmsstraße 54 in 24114 Kiel (4. OG, außen), die per BME280 und einem ESP-32 erhoben werden.

Unter https://wetter.janbpunkt.de/weather.xml steht eine entsprechende XML bereit, die das jüngste Messergebnis enthält.

Da der weatherino ab und zu ausfällt/gewartet wird, können Messpunkte fehlen.

Mehr zu dem Projekt findet man hier.

SSL, keine Cookies, keine IP-Adress-Speicherung, keine Verarbeitung von personenbezogenen Daten

Impressum

Extremwerte

Nachfolgend die Extremwerte seit Aufzeichnung.

BezeichnungWertZeitpunkt
Niedrigste Temperatur-6.4 ℃2021-02-13 07:00:53
Höchste Temperatur33.66 ℃2021-06-17 17:11:09
Niedrigster Luftdruck979.11 hPa2021-01-22 05:21:46
Höchster Luftdruck1074.18 hPa2020-12-24 17:16:12
Niedrigste Luftfeuchtigkeit22.3 %2020-04-13 15:26:13
Höchste Luftfeuchtigkeit100 %2021-09-19 15:54:57